Regional Weather Roundup
Issued by NWS

Home | Current Version | Previous Version | Text Only | Print | Product List | Glossary On
Versions: 1 2 3 4 5 6 7 8 9 10 11 12 13 14 15 16 17 18 19 20 21 22 23 24 25 26 27 28 29 30 31 32 33 34 35 36 37 38 39 40 41 42 43 44 45 46 47 48 49 50
000
ASUS43 KTOP 200008
RWRKS

WEATHER ROUNDUP FOR KANSAS
NATIONAL WEATHER SERVICE GOODLAND KS
700 PM CDT SAT APR 19 2014

NOTE:  "FAIR" INDICATES FEW OR NO CLOUDS BELOW 12,000 FEET WITH NO
SIGNIFICANT WEATHER AND/OR OBSTRUCTIONS TO VISIBILITY.

KSZ001>006-013>018-027>032-041>047-200100-
NORTHWEST KANSAS

CITY           SKY/WX    TMP DP  RH WIND       PRES   REMARKS
GOODLAND       MOSUNNY   67  46  47 NE14      29.97F
6HR MIN TEMP:  67; 6HR MAX TEMP:  72;

HAYS           CLOUDY    75  52  43 S15       29.92S
HILL CITY      MOSUNNY   80  47  31 S16G30    29.89R
6HR MIN TEMP:  74; 6HR MAX TEMP:  85;

RUSSELL        PTSUNNY   77  49  37 S23G29    29.91R
6HR MIN TEMP:  77; 6HR MAX TEMP:  84;

$$

KSZ061>065-074>080-084>089-200100-
SOUTHWEST KANSAS

CITY           SKY/WX    TMP DP  RH WIND       PRES   REMARKS
DODGE CITY     PTSUNNY   77  43  29 S25G35    29.94S
6HR MIN TEMP:  72; 6HR MAX TEMP:  80;

ELKHART          N/A     71  45  39 S22         N/A
GARDEN CITY    PTSUNNY   78  46  32 S23G30    29.92R
6HR MIN TEMP:  75; 6HR MAX TEMP:  82;

GREAT BEND     PTSUNNY   75  50  41 S26       29.92S
LIBERAL        CLOUDY    75  48  38 S24       29.97S
PRATT          PTSUNNY   73  48  40 S17       29.99S
$$

KSZ066>073-081>083-090>101-200100-
SOUTHEAST KANSAS

CITY           SKY/WX    TMP DP  RH WIND       PRES   REMARKS
CHANUTE        MOSUNNY   72  42  34 S15       30.07S
6HR MIN TEMP:  72; 6HR MAX TEMP:  77;

COFFEYVILLE    MOSUNNY   73  48  41 S12       30.07F
6HR MIN TEMP:  73; 6HR MAX TEMP:  78;

HUTCHINSON     MOSUNNY   77  48  35 S26G33    29.98R
6HR MIN TEMP:  75; 6HR MAX TEMP:  82;

MEDICINE LODGE   N/A     75  51  43 S18G28    29.98S
NEWTON         PTSUNNY   75  46  35 S23G30    30.03S
PARSONS        MOSUNNY   75  43  31 S8        30.08S
6HR MIN TEMP:  74; 6HR MAX TEMP:  79;

WICHITA INTL   PTSUNNY   76  48  37 S25G32    30.00S
6HR MIN TEMP:  74; 6HR MAX TEMP:  81;

WICHITA JABRA  PTSUNNY   76  49  38 S18G28    30.00S
6HR MIN TEMP:  74; 6HR MAX TEMP:  80;

WICHITA MCCONL MOSUNNY   76  48  37 S24       30.01F
WINFIELD       PTSUNNY   76  48  37 S20G26    30.04R
6HR MIN TEMP:  76; 6HR MAX TEMP:  80;

$$

KSZ007>012-019>026-033>040-048>060-102>105-200100-
NORTHEAST KANSAS

CITY           SKY/WX    TMP DP  RH WIND       PRES   REMARKS
CONCORDIA      PTSUNNY   77  50  38 S23G31    29.94R
6HR MIN TEMP:  76; 6HR MAX TEMP:  82;

EMPORIA        PTSUNNY   73  45  36 S18       30.03R
6HR MIN TEMP:  72; 6HR MAX TEMP:  78;

LAWRENCE       PTSUNNY   74  46  36 S14       30.05S
6HR MIN TEMP:  73; 6HR MAX TEMP:  80;

MANHATTAN      PTSUNNY   77  46  33 S17G26    29.98S
6HR MIN TEMP:  77; 6HR MAX TEMP:  81;

OLATHE IND     CLOUDY    71  44  37 S12       30.08S
6HR MIN TEMP:  71; 6HR MAX TEMP:  76;

OLATHE EXE     CLOUDY    71  44  37 S12       30.06F
6HR MIN TEMP:  71; 6HR MAX TEMP:  75;

SALINA         CLOUDY    79  50  36 S18G31    29.96R
6HR MIN TEMP:  78; 6HR MAX TEMP:  83; 6HR PCP: TRACE;

TOPEKA BILLARD PTSUNNY   75  44  33 SE16G23   30.03S
6HR MIN TEMP:  74; 6HR MAX TEMP:  79;

TOPEKA FORBES  PTSUNNY   74  43  32 S16G25    30.03S
6HR MIN TEMP:  73; 6HR MAX TEMP:  78;

$$



USA.gov is the U.S. government's official web portal to all federal, state and local government web resources and services.